• In Hungary
  • List of Countries
  • For 7 days
  • Water Temperature
  • Satellite Maps
  • Weather Map
  • News
  • Weather Widgets
  • user-avatar
    Login

    Hourly Weather Bershad

    Today, 19 September, Wednesday

    Time Temperature Precipitation Wind Pressure Humidity
    00:00 +18°C° 0 mm 1 mps 749 mmHg 59%
    01:00 +16°C° 0 mm 1 mps 749 mmHg 60%
    02:00 +16°C° 0 mm 1 mps 749 mmHg 62%
    03:00 +16°C° 0 mm 1 mps 749 mmHg 63%
    04:00 +15°C° 0 mm 1 mps 749 mmHg 65%
    05:00 +15°C° 0 mm 1 mps 749 mmHg 66%
    06:00 +16°C° 0 mm 1 mps 749 mmHg 63%
    07:00 +19°C° 0 mm 1 mps 749 mmHg 60%
    08:00 +20°C° 0 mm 1 mps 749 mmHg 57%
    09:00 +21°C° 0 mm 2 mps 749 mmHg 53%
    10:00 +24°C° 0 mm 2 mps 749 mmHg 48%
    11:00 +25°C° 0 mm 2 mps 749 mmHg 43%
    12:00 +26°C° 0 mm 3 mps 749 mmHg 41%
    13:00 +27°C° 0 mm 3 mps 749 mmHg 39%
    14:00 +27°C° 0 mm 3 mps 749 mmHg 37%
    15:00 +27°C° 0 mm 2 mps 749 mmHg 40%
    16:00 +26°C° 0 mm 2 mps 748 mmHg 42%
    17:00 +26°C° 0 mm 2 mps 748 mmHg 45%
    18:00 +24°C° 0 mm 1 mps 748 mmHg 47%
    19:00 +22°C° 0 mm 1 mps 748 mmHg 49%
    20:00 +21°C° 0 mm 1 mps 748 mmHg 52%
    21:00 +20°C° 0 mm 1 mps 748 mmHg 52%
    22:00 +20°C° 0 mm 1 mps 748 mmHg 53%
    23:00 +19°C° 0 mm 1 mps 748 mmHg 54%

    Tomorrow, 20 September, Thursday

    Time Temperature Precipitation Wind Pressure Humidity
    00:00 +19°C° 0 mm 1 mps 748 mmHg 55%
    01:00 +19°C° 0 mm 1 mps 748 mmHg 56%
    02:00 +17°C° 0 mm 2 mps 748 mmHg 57%
    03:00 +18°C° 0 mm 1 mps 748 mmHg 58%
    04:00 +16°C° 0 mm 1 mps 748 mmHg 59%
    05:00 +16°C° 0 mm 1 mps 748 mmHg 60%
    06:00 +18°C° 0 mm 1 mps 748 mmHg 57%
    07:00 +20°C° 0 mm 1 mps 748 mmHg 54%
    08:00 +21°C° 0 mm 1 mps 749 mmHg 52%
    09:00 +23°C° 0 mm 1 mps 749 mmHg 47%
    10:00 +24°C° 0 mm 1 mps 749 mmHg 42%
    11:00 +26°C° 0 mm 2 mps 749 mmHg 38%
    12:00 +27°C° 0 mm 2 mps 748 mmHg 36%
    13:00 +27°C° 0 mm 2 mps 748 mmHg 35%
    14:00 +28°C° 0 mm 2 mps 748 mmHg 33%
    15:00 +27°C° 0 mm 1 mps 748 mmHg 36%
    16:00 +27°C° 0 mm 1 mps 747 mmHg 39%
    17:00 +25°C° 0 mm 0 mps 747 mmHg 41%
    18:00 +23°C° 0 mm 0 mps 747 mmHg 43%
    19:00 +21°C° 0 mm 0 mps 747 mmHg 45%
    20:00 +20°C° 0 mm 0 mps 747 mmHg 47%
    21:00 +19°C° 0 mm 0 mps 747 mmHg 49%
    22:00 +19°C° 0 mm 0 mps 747 mmHg 50%
    23:00 +18°C° 0 mm 0 mps 747 mmHg 51%

    Day after tomorrow, 21 September, Friday

    Time Temperature Precipitation Wind Pressure Humidity
    00:00 +18°C° 0 mm 0 mps 747 mmHg 53%
    01:00 +17°C° 0 mm 0 mps 747 mmHg 54%
    02:00 +17°C° 0 mm 0 mps 747 mmHg 55%
    03:00 +19°C° 0 mm 1 mps 747 mmHg 57%
    04:00 +18°C° 0 mm 1 mps 747 mmHg 58%
    05:00 +18°C° 0 mm 1 mps 747 mmHg 59%
    06:00 +19°C° 0 mm 1 mps 747 mmHg 57%
    07:00 +20°C° 0 mm 1 mps 748 mmHg 55%
    08:00 +22°C° 0 mm 1 mps 748 mmHg 52%
    09:00 +23°C° 0 mm 1 mps 748 mmHg 48%
    10:00 +25°C° 0 mm 1 mps 748 mmHg 43%
    11:00 +27°C° 0 mm 2 mps 748 mmHg 38%
    12:00 +28°C° 0 mm 2 mps 748 mmHg 36%
    13:00 +28°C° 0 mm 2 mps 747 mmHg 34%
    14:00 +29°C° 0 mm 2 mps 747 mmHg 32%
    15:00 +28°C° 0 mm 1 mps 747 mmHg 35%
    16:00 +28°C° 0 mm 1 mps 747 mmHg 37%
    17:00 +27°C° 0 mm 1 mps 746 mmHg 40%
    18:00 +26°C° 0 mm 1 mps 746 mmHg 41%
    19:00 +24°C° 0 mm 1 mps 746 mmHg 43%
    20:00 +22°C° 0 mm 1 mps 746 mmHg 45%
    21:00 +21°C° 0 mm 2 mps 746 mmHg 46%
    22:00 +20°C° 0 mm 2 mps 746 mmHg 47%
    23:00 +20°C° 0 mm 2 mps 746 mmHg 49%

    22 September, Saturday

    Time Temperature Precipitation Wind Pressure Humidity
    00:00 +19°C° 0 mm 2 mps 746 mmHg 50%
    01:00 +19°C° 0 mm 2 mps 746 mmHg 51%
    02:00 +18°C° 0 mm 2 mps 746 mmHg 52%
    03:00 +18°C° 0 mm 2 mps 746 mmHg 53%
    04:00 +18°C° 0 mm 2 mps 745 mmHg 54%
    05:00 +18°C° 0 mm 2 mps 745 mmHg 55%
    06:00 +19°C° 0 mm 2 mps 745 mmHg 53%
    07:00 +20°C° 0 mm 2 mps 745 mmHg 51%
    08:00 +21°C° 0 mm 2 mps 745 mmHg 50%
    09:00 +24°C° 0 mm 3 mps 745 mmHg 45%
    10:00 +26°C° 0 mm 4 mps 745 mmHg 40%
    11:00 +28°C° 0 mm 4 mps 745 mmHg 35%
    12:00 +28°C° 0 mm 4 mps 745 mmHg 33%
    13:00 +29°C° 0 mm 4 mps 745 mmHg 32%
    14:00 +29°C° 0 mm 4 mps 744 mmHg 30%
    15:00 +28°C° 0 mm 3 mps 744 mmHg 33%
    16:00 +28°C° 0 mm 3 mps 744 mmHg 36%
    17:00 +27°C° 0 mm 2 mps 743 mmHg 38%
    18:00 +25°C° 0 mm 2 mps 743 mmHg 39%
    19:00 +24°C° 0 mm 2 mps 743 mmHg 40%
    20:00 +21°C° 0 mm 2 mps 743 mmHg 41%
    21:00 +21°C° 0 mm 2 mps 743 mmHg 42%
    22:00 +20°C° 0 mm 2 mps 743 mmHg 44%
    23:00 +20°C° 0 mm 3 mps 743 mmHg 45%

    23 September, Sunday

    Time Temperature Precipitation Wind Pressure Humidity
    00:00 +19°C° 0 mm 3 mps 743 mmHg 48%
    01:00 +19°C° 0 mm 3 mps 743 mmHg 51%
    02:00 +18°C° 0 mm 3 mps 742 mmHg 54%
    03:00 +18°C° 0 mm 3 mps 742 mmHg 57%
    04:00 +17°C° 0 mm 3 mps 742 mmHg 60%
    05:00 +17°C° 0 mm 3 mps 742 mmHg 63%
    06:00 +17°C° 0.1 mm 4 mps 742 mmHg 68%
    07:00 +15°C° 0.1 mm 5 mps 743 mmHg 73%
    08:00 +15°C° 0.1 mm 6 mps 743 mmHg 78%
    09:00 +13°C° 1 mm 6 mps 743 mmHg 79%
    10:00 +11°C° 1 mm 7 mps 744 mmHg 79%
    11:00 +9°C° 1 mm 8 mps 744 mmHg 80%
    12:00 +10°C° 0 mm 8 mps 745 mmHg 74%
    13:00 +11°C° 0 mm 8 mps 745 mmHg 68%
    14:00 +12°C° 0 mm 9 mps 745 mmHg 62%
    15:00 +12°C° 0 mm 8 mps 745 mmHg 60%
    16:00 +12°C° 0 mm 7 mps 745 mmHg 59%
    17:00 +13°C° 0 mm 6 mps 746 mmHg 57%
    18:00 +13°C° 0 mm 5 mps 746 mmHg 61%
    19:00 +12°C° 0 mm 4 mps 746 mmHg 64%
    20:00 +11°C° 0 mm 3 mps 746 mmHg 68%
    21:00 +10°C° 0 mm 3 mps 746 mmHg 70%
    22:00 +10°C° 0 mm 3 mps 746 mmHg 73%
    23:00 +10°C° 0 mm 3 mps 746 mmHg 75%

    24 September, Monday

    Time Temperature Precipitation Wind Pressure Humidity
    00:00 +10°C° 0 mm 3 mps 746 mmHg 76%
    01:00 +9°C° 0 mm 2 mps 746 mmHg 77%
    02:00 +9°C° 0 mm 2 mps 746 mmHg 78%
    03:00 +9°C° 0 mm 2 mps 745 mmHg 78%
    04:00 +9°C° 0 mm 1 mps 745 mmHg 78%
    05:00 +9°C° 0 mm 1 mps 745 mmHg 78%
    06:00 +10°C° 0 mm 1 mps 745 mmHg 73%
    07:00 +12°C° 0 mm 1 mps 745 mmHg 67%
    08:00 +13°C° 0 mm 1 mps 745 mmHg 62%
    09:00 +15°C° 0 mm 1 mps 745 mmHg 55%
    10:00 +16°C° 0 mm 1 mps 745 mmHg 48%
    11:00 +18°C° 0 mm 2 mps 744 mmHg 41%
    12:00 +19°C° 0 mm 2 mps 744 mmHg 38%
    13:00 +19°C° 0 mm 2 mps 743 mmHg 35%
    14:00 +20°C° 0 mm 3 mps 742 mmHg 32%
    15:00 +20°C° 0 mm 3 mps 742 mmHg 34%
    16:00 +19°C° 0 mm 3 mps 742 mmHg 36%
    17:00 +19°C° 0 mm 3 mps 741 mmHg 39%
    18:00 +18°C° 0 mm 3 mps 741 mmHg 39%
    19:00 +16°C° 0 mm 3 mps 741 mmHg 40%
    20:00 +14°C° 0 mm 3 mps 741 mmHg 41%
    21:00 +14°C° 0 mm 4 mps 741 mmHg 41%
    22:00 +14°C° 0 mm 4 mps 740 mmHg 42%
    23:00 +13°C° 0 mm 4 mps 740 mmHg 42%
    Show more